WXM80 ListenWXM80 Stop

You find our weather info also at:

UK Metoffice

WeatherCloud

Weather Underground

Northeastern Weather Network

AWEKAS

Citizen Weather Observer Program (CWOP)

HAMweather, WeatherForYou, PWS Weather


Weather Underground History page Text

Daily Summary for June 7, 2016 Units:  English    Metric   Both
« Previous Day
Next Day »
Daily Weekly Monthly Yearly Custom
  High: Low: Average:
Temperature: 90.9 °F 66.7 °F 76.3 °F
Dew Point: 68.5 °F 54.2 °F 62.2 °F
Humidity: 90 % 34 % 64 %
Wind Speed: 9.5 mph 0.0 mph 2.3 mph
Wind Gust: 15.0 mph - -
Wind:- - WSW
Pressure: 29.61 in 29.40 in -
Precipitation: 0.00 in    
Historical Graphs
 
 
Tabular Data for June 7, 2016
Time Temperature Dew Point Pressure Wind Wind Speed Wind Gust Humidity Rainfall Rate (Hourly)
00:02 73.0 °F 64.2 °F 29.61 in WSW 0.3 mph 2.3 mph 74 % 0.00 in
00:08 73.0 °F 64.2 °F 29.61 in SW 2.7 mph 4.0 mph 74 % 0.00 in
00:13 73.1 °F 63.9 °F 29.60 in South 1.8 mph 3.5 mph 73 % 0.00 in
00:18 73.1 °F 63.9 °F 29.60 in South 1.9 mph 6.9 mph 73 % 0.00 in
00:28 73.2 °F 64.0 °F 29.59 in SW 1.6 mph 3.5 mph 73 % 0.00 in
00:33 73.2 °F 64.0 °F 29.59 in SW 1.7 mph 3.5 mph 73 % 0.00 in
00:38 73.1 °F 63.9 °F 29.59 in SSW 1.9 mph 3.5 mph 73 % 0.00 in
00:43 73.1 °F 63.9 °F 29.59 in SW 0.8 mph 3.5 mph 73 % 0.00 in
00:48 73.1 °F 63.9 °F 29.59 in SSE 0.6 mph 3.5 mph 73 % 0.00 in
00:53 73.1 °F 63.9 °F 29.59 in SW 1.1 mph 2.0 mph 73 % 0.00 in
00:59 73.0 °F 63.8 °F 29.58 in SSW 1.2 mph 2.3 mph 73 % 0.00 in
01:04 72.9 °F 63.7 °F 29.58 in SSW 0.6 mph 3.5 mph 73 % 0.00 in
01:14 72.8 °F 64.0 °F 29.58 in SW 2.9 mph 4.6 mph 74 % 0.00 in
01:19 72.7 °F 63.9 °F 29.58 in SSW 1.5 mph 5.8 mph 74 % 0.00 in
01:24 72.6 °F 63.8 °F 29.58 in SSW 0.8 mph 3.5 mph 74 % 0.00 in
01:29 72.6 °F 63.8 °F 29.58 in SW 1.4 mph 3.5 mph 74 % 0.00 in
01:34 72.5 °F 64.1 °F 29.58 in SSE 2.2 mph 4.6 mph 75 % 0.00 in
01:39 72.4 °F 64.0 °F 29.58 in SSW 1.5 mph 5.8 mph 75 % 0.00 in
01:44 72.4 °F 64.0 °F 29.58 in SW 1.0 mph 3.5 mph 75 % 0.00 in
01:50 72.3 °F 63.9 °F 29.58 in SW 0.2 mph 2.3 mph 75 % 0.00 in
01:55 72.2 °F 63.8 °F 29.58 in SW 0.9 mph 2.3 mph 75 % 0.00 in
02:00 72.2 °F 64.2 °F 29.58 in WSW 0.7 mph 3.5 mph 76 % 0.00 in
02:05 72.1 °F 64.1 °F 29.58 in SE 0.8 mph 2.3 mph 76 % 0.00 in
02:10 72.0 °F 64.0 °F 29.58 in WSW 2.5 mph 4.6 mph 76 % 0.00 in
02:15 71.9 °F 63.9 °F 29.58 in SSW 0.4 mph 3.0 mph 76 % 0.00 in
02:20 71.8 °F 64.2 °F 29.58 in WSW 0.3 mph 2.3 mph 77 % 0.00 in
02:25 71.7 °F 64.1 °F 29.57 in SW 2.2 mph 4.6 mph 77 % 0.00 in
02:30 71.6 °F 64.0 °F 29.57 in WSW 0.7 mph 2.3 mph 77 % 0.00 in
02:35 71.5 °F 63.9 °F 29.57 in SSW 1.1 mph 3.5 mph 77 % 0.00 in
02:41 71.4 °F 64.2 °F 29.56 in WSW 1.0 mph 4.0 mph 78 % 0.00 in
02:46 71.3 °F 64.1 °F 29.56 in SSW 1.5 mph 4.6 mph 78 % 0.00 in
02:51 71.3 °F 64.1 °F 29.56 in SSW 0.3 mph 2.3 mph 78 % 0.00 in
02:56 71.3 °F 64.1 °F 29.56 in SSW 0.6 mph 2.3 mph 78 % 0.00 in
03:01 71.2 °F 64.4 °F 29.56 in ESE 0.3 mph 2.3 mph 79 % 0.00 in
03:11 71.0 °F 64.2 °F 29.56 in SW 0.1 mph 1.2 mph 79 % 0.00 in
03:16 71.0 °F 64.2 °F 29.56 in SW 0.2 mph 2.3 mph 79 % 0.00 in
03:21 70.9 °F 64.1 °F 29.56 in SE 0.5 mph 3.0 mph 79 % 0.00 in
03:26 70.8 °F 64.3 °F 29.56 in SE 0.2 mph 1.2 mph 80 % 0.00 in
03:32 70.7 °F 64.2 °F 29.55 in Calm     80 % 0.00 in
03:37 70.6 °F 64.1 °F 29.55 in Calm   1.2 mph 80 % 0.00 in
03:42 70.5 °F 64.0 °F 29.55 in Calm     80 % 0.00 in
03:47 70.3 °F 64.2 °F 29.55 in WSW 0.7 mph 3.5 mph 81 % 0.00 in
03:52 70.1 °F 64.0 °F 29.55 in WSW 0.2 mph 2.3 mph 81 % 0.00 in
03:57 70.0 °F 64.2 °F 29.55 in SW 0.8 mph 3.5 mph 82 % 0.00 in
04:02 69.9 °F 64.2 °F 29.55 in SW 0.2 mph 2.3 mph 82 % 0.00 in
04:07 69.8 °F 64.4 °F 29.54 in Calm   2.3 mph 83 % 0.00 in
04:12 69.7 °F 64.3 °F 29.54 in Calm     83 % 0.00 in
04:18 69.6 °F 64.2 °F 29.54 in Calm     83 % 0.00 in
04:23 69.6 °F 64.2 °F 29.54 in SW 0.7 mph 2.3 mph 83 % 0.00 in
04:28 69.4 °F 64.4 °F 29.54 in Calm     84 % 0.00 in
04:33 69.4 °F 64.4 °F 29.54 in SSW 0.1 mph 1.2 mph 84 % 0.00 in
04:38 69.3 °F 64.3 °F 29.53 in SSE 0.6 mph 2.3 mph 84 % 0.00 in
04:43 69.2 °F 64.5 °F 29.54 in Calm   1.2 mph 85 % 0.00 in
04:48 69.1 °F 64.4 °F 29.54 in Calm     85 % 0.00 in
04:53 69.0 °F 64.3 °F 29.53 in Calm     85 % 0.00 in
04:58 68.9 °F 64.5 °F 29.54 in SSW 0.1 mph 3.5 mph 86 % 0.00 in
05:03 68.8 °F 64.4 °F 29.54 in WSW 1.2 mph 3.5 mph 86 % 0.00 in
05:09 68.7 °F 64.7 °F 29.54 in SW 0.8 mph 1.2 mph 87 % 0.00 in
05:14 68.6 °F 64.6 °F 29.54 in Calm   1.2 mph 87 % 0.00 in
05:19 68.5 °F 64.5 °F 29.54 in Calm     87 % 0.00 in
05:24 68.5 °F 64.5 °F 29.53 in SSW 0.4 mph 2.3 mph 87 % 0.00 in
05:29 68.4 °F 64.7 °F 29.53 in SSW 0.1 mph 1.2 mph 88 % 0.00 in
05:34 68.3 °F 64.6 °F 29.53 in SW 1.5 mph 3.5 mph 88 % 0.00 in
05:39 68.3 °F 64.6 °F 29.53 in SW 0.9 mph 2.0 mph 88 % 0.00 in
05:44 68.3 °F 64.6 °F 29.53 in Calm   1.2 mph 88 % 0.00 in
06:00 68.2 °F 64.8 °F 29.53 in West 1.6 mph 3.5 mph 89 % 0.00 in
06:05 68.2 °F 64.8 °F 29.53 in WSW 1.9 mph 3.5 mph 89 % 0.00 in
06:10 68.3 °F 65.3 °F 29.53 in WSW 3.2 mph 6.9 mph 90 % 0.00 in
06:15 68.3 °F 65.3 °F 29.53 in West 2.7 mph 5.8 mph 90 % 0.00 in
06:20 68.5 °F 65.4 °F 29.53 in SW 1.2 mph 3.5 mph 90 % 0.00 in
06:25 68.6 °F 65.5 °F 29.53 in WSW 2.3 mph 3.5 mph 90 % 0.00 in
06:30 68.8 °F 65.7 °F 29.54 in WSW 1.6 mph 4.0 mph 90 % 0.00 in
06:35 69.0 °F 65.9 °F 29.54 in SW 3.4 mph 4.0 mph 90 % 0.00 in
06:40 69.3 °F 65.9 °F 29.54 in WSW 1.0 mph 2.3 mph 89 % 0.00 in
06:45 69.5 °F 66.1 °F 29.54 in WSW 1.8 mph 3.5 mph 89 % 0.00 in
06:51 69.8 °F 66.4 °F 29.53 in SW 1.6 mph 2.3 mph 89 % 0.00 in
06:56 70.1 °F 66.4 °F 29.53 in SW 1.1 mph 3.5 mph 88 % 0.00 in
07:01 70.5 °F 66.8 °F 29.53 in SW 0.4 mph 2.3 mph 88 % 0.00 in
07:06 70.9 °F 66.8 °F 29.54 in SW 2.1 mph 3.5 mph 87 % 0.00 in
07:11 71.2 °F 67.1 °F 29.53 in SW 1.0 mph 3.0 mph 87 % 0.00 in
07:16 71.7 °F 67.3 °F 29.53 in WSW 1.8 mph 3.5 mph 86 % 0.00 in
07:21 72.2 °F 67.8 °F 29.53 in WSW 1.8 mph 3.5 mph 86 % 0.00 in
07:26 72.6 °F 67.8 °F 29.52 in Calm   1.2 mph 85 % 0.00 in
07:31 73.0 °F 67.9 °F 29.52 in SSW 0.8 mph 3.5 mph 84 % 0.00 in
07:36 73.5 °F 67.7 °F 29.53 in SW 0.9 mph 3.5 mph 82 % 0.00 in
07:42 73.8 °F 67.6 °F 29.53 in WNW 5.0 mph 5.8 mph 81 % 0.00 in
07:47 73.9 °F 67.7 °F 29.53 in SW 0.8 mph 2.3 mph 81 % 0.00 in
07:52 74.0 °F 67.8 °F 29.52 in SW 1.8 mph 4.6 mph 81 % 0.00 in
07:57 74.0 °F 67.4 °F 29.52 in West 1.6 mph 3.5 mph 80 % 0.00 in
08:02 74.1 °F 67.5 °F 29.52 in WSW 2.9 mph 6.0 mph 80 % 0.00 in
08:07 74.2 °F 67.6 °F 29.52 in West 1.6 mph 3.5 mph 80 % 0.00 in
08:12 74.3 °F 67.4 °F 29.52 in SW 1.0 mph 3.5 mph 79 % 0.00 in
08:17 74.3 °F 67.7 °F 29.52 in WSW 2.6 mph 6.0 mph 80 % 0.00 in
08:22 74.4 °F 67.5 °F 29.53 in WSW 3.1 mph 5.8 mph 79 % 0.00 in
08:27 74.5 °F 67.2 °F 29.52 in NW 1.4 mph 4.0 mph 78 % 0.00 in
08:33 74.7 °F 67.4 °F 29.52 in Calm   3.5 mph 78 % 0.00 in
08:38 74.9 °F 67.6 °F 29.52 in SW 1.3 mph 3.5 mph 78 % 0.00 in
08:43 75.1 °F 67.4 °F 29.52 in SW 2.0 mph 3.5 mph 77 % 0.00 in
08:48 75.3 °F 68.0 °F 29.52 in SW 2.3 mph 3.5 mph 78 % 0.00 in
08:53 75.5 °F 67.0 °F 29.52 in SSW 3.5 mph 4.6 mph 75 % 0.00 in
08:58 75.6 °F 66.3 °F 29.52 in WSW 3.9 mph 6.9 mph 73 % 0.00 in
09:03 75.8 °F 66.1 °F 29.52 in SW 4.8 mph 7.0 mph 72 % 0.00 in
09:08 75.8 °F 66.1 °F 29.51 in WSW 2.7 mph 3.5 mph 72 % 0.00 in
09:13 75.9 °F 66.2 °F 29.51 in WSW 6.2 mph 9.2 mph 72 % 0.00 in
09:18 76.0 °F 66.3 °F 29.52 in WSW 6.4 mph 8.0 mph 72 % 0.00 in
09:24 76.1 °F 66.4 °F 29.52 in WNW 2.4 mph 4.6 mph 72 % 0.00 in
09:29 76.2 °F 66.1 °F 29.51 in SW 2.0 mph 4.6 mph 71 % 0.00 in
09:34 76.4 °F 65.5 °F 29.51 in SW 4.2 mph 6.0 mph 69 % 0.00 in
09:39 76.7 °F 65.8 °F 29.50 in West 3.0 mph 4.6 mph 69 % 0.00 in
09:44 77.2 °F 65.4 °F 29.51 in WNW 2.6 mph 5.8 mph 67 % 0.00 in
09:49 77.8 °F 65.5 °F 29.50 in WSW 3.8 mph 7.0 mph 66 % 0.00 in
09:54 78.5 °F 65.8 °F 29.50 in SW 5.7 mph 7.0 mph 65 % 0.00 in
10:04 80.1 °F 67.3 °F 29.51 in West 0.8 mph 3.5 mph 65 % 0.00 in
10:15 81.1 °F 67.3 °F 29.50 in SW 1.8 mph 4.0 mph 63 % 0.00 in
10:20 81.5 °F 67.2 °F 29.50 in West 2.8 mph 5.8 mph 62 % 0.00 in
10:25 81.7 °F 66.0 °F 29.50 in NW 1.0 mph 5.8 mph 59 % 0.00 in
10:30 82.0 °F 66.3 °F 29.50 in SW 3.0 mph 5.0 mph 59 % 0.00 in
10:35 81.9 °F 66.2 °F 29.50 in SSW 2.0 mph 4.6 mph 59 % 0.00 in
10:40 81.8 °F 66.1 °F 29.49 in West 1.2 mph 4.6 mph 59 % 0.00 in
10:45 82.0 °F 66.7 °F 29.49 in West 0.8 mph 2.3 mph 60 % 0.00 in
10:55 82.7 °F 64.4 °F 29.49 in WNW 0.6 mph 3.0 mph 54 % 0.00 in
11:00 83.2 °F 64.3 °F 29.49 in WNW 4.2 mph 6.9 mph 53 % 0.00 in
11:06 83.6 °F 64.7 °F 29.49 in West 3.0 mph 5.0 mph 53 % 0.00 in
11:11 84.1 °F 64.6 °F 29.50 in NNW 1.6 mph 5.8 mph 52 % 0.00 in
11:16 84.8 °F 64.7 °F 29.50 in WSW 2.6 mph 4.6 mph 51 % 0.00 in
11:21 85.3 °F 65.1 °F 29.50 in SW 3.1 mph 6.0 mph 51 % 0.00 in
11:26 85.7 °F 64.9 °F 29.50 in SW 4.7 mph 8.1 mph 50 % 0.00 in
11:31 85.9 °F 63.3 °F 29.50 in SW 5.8 mph 7.0 mph 47 % 0.00 in
11:36 86.0 °F 64.6 °F 29.50 in WSW 3.4 mph 8.1 mph 49 % 0.00 in
11:41 86.0 °F 65.2 °F 29.50 in SW 3.1 mph 5.0 mph 50 % 0.00 in
11:46 86.3 °F 66.0 °F 29.50 in West 3.3 mph 8.1 mph 51 % 0.00 in
11:51 86.6 °F 64.6 °F 29.50 in SW 3.5 mph 6.9 mph 48 % 0.00 in
11:57 86.8 °F 64.8 °F 29.50 in SW 3.9 mph 8.1 mph 48 % 0.00 in
12:02 86.8 °F 64.8 °F 29.49 in West 4.1 mph 8.1 mph 48 % 0.00 in
12:07 87.0 °F 65.5 °F 29.49 in West 4.0 mph 7.0 mph 49 % 0.00 in
12:12 87.3 °F 64.6 °F 29.49 in WSW 3.5 mph 5.8 mph 47 % 0.00 in
12:17 87.6 °F 66.1 °F 29.49 in SSW 3.2 mph 5.0 mph 49 % 0.00 in
12:22 87.9 °F 65.2 °F 29.49 in North 3.9 mph 6.9 mph 47 % 0.00 in
12:32 88.3 °F 64.3 °F 29.48 in WNW 3.7 mph 8.1 mph 45 % 0.00 in
12:37 88.4 °F 66.2 °F 29.48 in WNW 6.0 mph 9.2 mph 48 % 0.00 in
12:42 88.6 °F 65.2 °F 29.48 in West 2.1 mph 4.6 mph 46 % 0.00 in
12:48 88.7 °F 64.0 °F 29.47 in SW 4.0 mph 4.0 mph 44 % 0.00 in
12:53 89.0 °F 67.9 °F 29.47 in NNE 1.2 mph 3.5 mph 50 % 0.00 in
12:58 89.4 °F 67.1 °F 29.47 in North 3.5 mph 7.0 mph 48 % 0.00 in
13:03 89.6 °F 66.1 °F 29.47 in West 2.9 mph 5.8 mph 46 % 0.00 in
13:08 89.7 °F 66.8 °F 29.47 in North 2.8 mph 3.5 mph 47 % 0.00 in
13:13 89.4 °F 66.5 °F 29.47 in North 1.5 mph 4.6 mph 47 % 0.00 in
13:23 89.2 °F 66.3 °F 29.46 in NW 1.8 mph 4.6 mph 47 % 0.00 in
13:33 89.6 °F 68.5 °F 29.45 in WNW 1.2 mph 3.5 mph 50 % 0.00 in
13:39 89.9 °F 67.6 °F 29.45 in NNW 1.8 mph 5.0 mph 48 % 0.00 in
13:44 90.1 °F 67.2 °F 29.45 in NNE 1.3 mph 3.5 mph 47 % 0.00 in
13:54 90.5 °F 67.5 °F 29.44 in WNW 0.9 mph 4.6 mph 47 % 0.00 in
13:59 90.8 °F 67.2 °F 29.43 in WNW 0.5 mph 4.6 mph 46 % 0.00 in
14:04 90.9 °F 63.9 °F 29.43 in WNW 3.8 mph 9.2 mph 41 % 0.00 in
14:09 90.8 °F 63.1 °F 29.43 in WSW 4.2 mph 6.9 mph 40 % 0.00 in
14:19 90.6 °F 65.0 °F 29.43 in WNW 0.4 mph 2.3 mph 43 % 0.00 in
14:24 90.8 °F 64.5 °F 29.43 in NW 2.8 mph 3.5 mph 42 % 0.00 in
14:30 90.9 °F 61.8 °F 29.43 in SW 6.0 mph 8.1 mph 38 % 0.00 in
14:35 90.6 °F 62.3 °F 29.42 in SSW 1.5 mph 2.3 mph 39 % 0.00 in
14:40 90.3 °F 60.5 °F 29.42 in SW 5.1 mph 8.1 mph 37 % 0.00 in
14:45 89.9 °F 60.9 °F 29.42 in West 2.7 mph 6.9 mph 38 % 0.00 in
14:50 89.8 °F 59.3 °F 29.42 in West 3.7 mph 6.9 mph 36 % 0.00 in
14:55 89.8 °F 60.8 °F 29.42 in West 3.7 mph 8.1 mph 38 % 0.00 in
15:00 89.9 °F 60.9 °F 29.42 in West 3.3 mph 6.0 mph 38 % 0.00 in
15:05 89.9 °F 62.3 °F 29.41 in WSW 4.6 mph 8.0 mph 40 % 0.00 in
15:10 90.0 °F 61.7 °F 29.41 in SSW 2.4 mph 6.0 mph 39 % 0.00 in
15:15 90.1 °F 61.1 °F 29.41 in SSW 2.2 mph 3.5 mph 38 % 0.00 in
15:21 90.2 °F 61.2 °F 29.41 in NW 3.5 mph 5.8 mph 38 % 0.00 in
15:26 90.3 °F 63.4 °F 29.41 in West 0.4 mph 3.5 mph 41 % 0.00 in
15:31 90.5 °F 61.4 °F 29.41 in WSW 3.1 mph 4.6 mph 38 % 0.00 in
15:36 90.6 °F 61.5 °F 29.41 in NNW 1.3 mph 3.5 mph 38 % 0.00 in
15:41 90.3 °F 59.7 °F 29.41 in SW 1.7 mph 3.5 mph 36 % 0.00 in
15:46 89.9 °F 57.8 °F 29.42 in WSW 8.6 mph 11.5 mph 34 % 0.00 in
15:51 89.1 °F 57.1 °F 29.42 in WNW 7.9 mph 15.0 mph 34 % 0.00 in
15:56 87.7 °F 56.7 °F 29.40 in NW 4.1 mph 12.7 mph 35 % 0.00 in
16:01 86.4 °F 56.3 °F 29.41 in WNW 4.4 mph 11.5 mph 36 % 0.00 in
16:12 84.6 °F 56.9 °F 29.41 in WSW 3.7 mph 12.7 mph 39 % 0.00 in
16:17 83.9 °F 56.3 °F 29.41 in WNW 3.6 mph 6.9 mph 39 % 0.00 in
16:22 83.4 °F 56.5 °F 29.41 in SW 2.4 mph 3.5 mph 40 % 0.00 in
16:27 82.6 °F 54.4 °F 29.41 in SSW 5.7 mph 9.2 mph 38 % 0.00 in
16:32 82.0 °F 55.3 °F 29.41 in SW 4.5 mph 7.0 mph 40 % 0.00 in
16:37 81.4 °F 55.4 °F 29.41 in WNW 1.3 mph 5.8 mph 41 % 0.00 in
16:42 80.8 °F 56.2 °F 29.41 in WSW 4.1 mph 10.4 mph 43 % 0.00 in
16:47 80.2 °F 55.7 °F 29.41 in WSW 4.4 mph 9.2 mph 43 % 0.00 in
16:52 79.5 °F 56.3 °F 29.41 in SW 6.0 mph 11.5 mph 45 % 0.00 in
16:58 78.8 °F 55.7 °F 29.41 in WSW 5.1 mph 13.8 mph 45 % 0.00 in
17:03 78.2 °F 55.1 °F 29.41 in West 9.5 mph 13.8 mph 45 % 0.00 in
17:08 77.8 °F 55.4 °F 29.40 in SSW 3.7 mph 5.8 mph 46 % 0.00 in
17:13 77.6 °F 56.4 °F 29.40 in WSW 1.8 mph 5.8 mph 48 % 0.00 in
17:18 77.5 °F 56.3 °F 29.40 in SW 2.8 mph 4.6 mph 48 % 0.00 in
17:23 77.4 °F 56.2 °F 29.41 in SW 2.1 mph 4.6 mph 48 % 0.00 in
17:28 77.3 °F 56.6 °F 29.41 in WSW 4.2 mph 5.8 mph 49 % 0.00 in
17:38 77.1 °F 57.0 °F 29.41 in SSW 0.9 mph 3.5 mph 50 % 0.00 in
17:43 77.1 °F 57.0 °F 29.41 in WSW 4.4 mph 10.4 mph 50 % 0.00 in
17:49 77.4 °F 57.9 °F 29.41 in WSW 3.7 mph 5.0 mph 51 % 0.00 in
17:54 77.6 °F 58.6 °F 29.41 in WSW 3.6 mph 6.9 mph 52 % 0.00 in
17:59 77.7 °F 58.7 °F 29.41 in WSW 2.9 mph 4.6 mph 52 % 0.00 in
18:04 77.8 °F 58.8 °F 29.41 in SW 0.6 mph 3.0 mph 52 % 0.00 in
18:09 77.9 °F 59.9 °F 29.41 in SW 1.3 mph 3.5 mph 54 % 0.00 in
18:14 77.9 °F 59.4 °F 29.42 in South 2.5 mph 4.6 mph 53 % 0.00 in
18:19 77.8 °F 59.8 °F 29.42 in SE 0.6 mph 2.3 mph 54 % 0.00 in
18:24 77.7 °F 59.7 °F 29.42 in SSW 2.9 mph 6.0 mph 54 % 0.00 in
18:29 77.5 °F 60.1 °F 29.43 in SW 0.6 mph 5.0 mph 55 % 0.00 in
18:34 77.4 °F 60.0 °F 29.42 in WSW 0.2 mph 3.5 mph 55 % 0.00 in
18:40 77.1 °F 59.7 °F 29.42 in WSW 0.2 mph 3.5 mph 55 % 0.00 in
18:45 76.8 °F 59.9 °F 29.42 in Calm   3.5 mph 56 % 0.00 in
18:50 76.6 °F 59.7 °F 29.42 in SSW 0.3 mph 2.3 mph 56 % 0.00 in
18:55 76.4 °F 59.5 °F 29.43 in SW 1.1 mph 3.5 mph 56 % 0.00 in
19:00 76.1 °F 59.3 °F 29.43 in SSW 2.3 mph 4.0 mph 56 % 0.00 in
19:05 75.8 °F 59.0 °F 29.43 in SW 1.3 mph 4.6 mph 56 % 0.00 in
19:10 75.7 °F 59.4 °F 29.43 in SW 0.9 mph 3.5 mph 57 % 0.00 in
19:15 75.5 °F 59.2 °F 29.44 in WNW 4.8 mph 8.1 mph 57 % 0.00 in
19:20 75.4 °F 58.1 °F 29.43 in SW 5.8 mph 10.0 mph 55 % 0.00 in
19:31 75.1 °F 56.3 °F 29.44 in SW 6.0 mph 11.5 mph 52 % 0.00 in
19:36 75.0 °F 56.2 °F 29.44 in West 4.5 mph 7.0 mph 52 % 0.00 in
19:41 75.0 °F 56.2 °F 29.44 in SW 3.2 mph 5.8 mph 52 % 0.00 in
19:46 74.9 °F 56.6 °F 29.44 in NW 3.8 mph 8.0 mph 53 % 0.00 in
19:51 74.7 °F 55.9 °F 29.44 in WSW 3.6 mph 5.8 mph 52 % 0.00 in
19:56 74.6 °F 56.9 °F 29.45 in WNW 4.9 mph 8.1 mph 54 % 0.00 in
20:01 74.3 °F 57.1 °F 29.45 in West 2.8 mph 5.8 mph 55 % 0.00 in
20:06 74.0 °F 57.3 °F 29.45 in WNW 3.9 mph 5.8 mph 56 % 0.00 in
20:11 73.7 °F 57.5 °F 29.45 in NW 2.4 mph 3.5 mph 57 % 0.00 in
20:16 73.3 °F 57.6 °F 29.45 in WNW 2.3 mph 2.3 mph 58 % 0.00 in
20:27 72.5 °F 56.9 °F 29.46 in WSW 3.2 mph 4.0 mph 58 % 0.00 in
20:32 72.2 °F 56.6 °F 29.46 in WNW 4.7 mph 8.1 mph 58 % 0.00 in
20:37 71.8 °F 56.7 °F 29.46 in WSW 1.6 mph 4.0 mph 59 % 0.00 in
20:42 71.6 °F 56.5 °F 29.46 in WSW 2.3 mph 4.6 mph 59 % 0.00 in
20:47 71.3 °F 56.2 °F 29.46 in NW 2.5 mph 4.6 mph 59 % 0.00 in
20:52 71.1 °F 56.0 °F 29.46 in WNW 4.1 mph 6.0 mph 59 % 0.00 in
20:57 70.8 °F 55.8 °F 29.47 in West 2.3 mph 4.0 mph 59 % 0.00 in
21:02 70.6 °F 55.6 °F 29.47 in West 3.3 mph 9.2 mph 59 % 0.00 in
21:07 70.4 °F 55.8 °F 29.47 in WSW 3.6 mph 5.8 mph 60 % 0.00 in
21:13 70.3 °F 56.2 °F 29.48 in West 4.2 mph 4.6 mph 61 % 0.00 in
21:18 70.1 °F 56.5 °F 29.48 in West 2.1 mph 9.2 mph 62 % 0.00 in
21:23 69.9 °F 56.7 °F 29.48 in WNW 4.3 mph 8.1 mph 63 % 0.00 in
21:28 69.7 °F 56.5 °F 29.48 in NW 3.6 mph 6.9 mph 63 % 0.00 in
21:33 69.5 °F 56.8 °F 29.48 in NW 3.3 mph 6.9 mph 64 % 0.00 in
21:38 69.4 °F 56.7 °F 29.48 in WNW 0.6 mph 3.0 mph 64 % 0.00 in
21:43 69.2 °F 56.9 °F 29.49 in WNW 2.7 mph 7.0 mph 65 % 0.00 in
21:48 69.0 °F 56.7 °F 29.49 in West 2.1 mph 5.0 mph 65 % 0.00 in
21:58 68.7 °F 56.9 °F 29.48 in West 0.7 mph 3.5 mph 66 % 0.00 in
22:04 68.6 °F 56.8 °F 29.49 in WNW 0.9 mph 3.5 mph 66 % 0.00 in
22:09 68.4 °F 56.6 °F 29.49 in WNW 1.6 mph 4.6 mph 66 % 0.00 in
22:14 68.2 °F 56.8 °F 29.49 in WNW 2.0 mph 4.6 mph 67 % 0.00 in
22:19 68.0 °F 57.0 °F 29.50 in West 3.9 mph 5.8 mph 68 % 0.00 in
22:24 67.9 °F 56.9 °F 29.50 in West 0.9 mph 5.8 mph 68 % 0.00 in
22:29 67.7 °F 56.8 °F 29.50 in WNW 2.1 mph 3.5 mph 68 % 0.00 in
22:34 67.6 °F 57.1 °F 29.50 in West 0.5 mph 2.3 mph 69 % 0.00 in
22:44 67.3 °F 56.4 °F 29.51 in West 4.0 mph 8.1 mph 68 % 0.00 in
22:49 67.2 °F 56.3 °F 29.51 in NW 6.0 mph 10.4 mph 68 % 0.00 in
22:55 67.2 °F 56.7 °F 29.51 in WNW 2.9 mph 5.8 mph 69 % 0.00 in
23:00 67.2 °F 56.3 °F 29.51 in WNW 5.0 mph 7.0 mph 68 % 0.00 in
23:05 67.1 °F 55.8 °F 29.51 in West 2.5 mph 10.4 mph 67 % 0.00 in
23:10 67.0 °F 55.3 °F 29.51 in WNW 5.7 mph 9.2 mph 66 % 0.00 in
23:15 66.9 °F 54.7 °F 29.51 in West 3.5 mph 10.4 mph 65 % 0.00 in
23:20 66.8 °F 54.7 °F 29.51 in WSW 3.4 mph 5.8 mph 65 % 0.00 in
23:25 66.8 °F 54.2 °F 29.51 in WNW 4.5 mph 13.8 mph 64 % 0.00 in
23:35 66.7 °F 54.6 °F 29.52 in WSW 3.5 mph 8.1 mph 65 % 0.00 in
23:40 66.7 °F 54.6 °F 29.52 in NW 4.7 mph 9.2 mph 65 % 0.00 in
23:46 66.7 °F 55.0 °F 29.52 in West 1.1 mph 10.4 mph 66 % 0.00 in
23:56 66.7 °F 55.4 °F 29.52 in WSW 5.7 mph 10.4 mph 67 % 0.00 in
Crab Meadow Weather
Compliments of Weather Underground - 2.75 mb

Script developed by  Jim McMurry - jmcmurry@mwt.net Adapted for the template by  Wim van der Kuil - Leuven-Template.eu

Recycling: The U.S. is the #1 trash-producing country in the world at 1,609 pounds per person per year. This means that 5% of the world's people generate 40% of the world's waste.